TimeCDT,TemperatureF,Dew PointF,Humidity,Sea Level PressureIn,VisibilityMPH,Wind Direction,Wind SpeedMPH,Gust SpeedMPH,PrecipitationIn,Events,Conditions,WindDirDegrees,DateUTC
12:53 AM,60.1,51.1,72,30.16,10.0,North,-9999.0,-,N/A,,Clear,0,2012-09-24 05:53:00
1:53 AM,60.1,50.0,69,30.15,10.0,North,-9999.0,-,N/A,,Clear,0,2012-09-24 06:53:00
2:53 AM,60.1,48.9,67,30.16,10.0,North,-9999.0,-,N/A,,Clear,0,2012-09-24 07:53:00
3:53 AM,60.1,48.9,67,30.15,10.0,North,-9999.0,-,N/A,,Clear,0,2012-09-24 08:53:00
4:53 AM,61.0,46.9,60,30.15,10.0,North,-9999.0,-,N/A,,Clear,0,2012-09-24 09:53:00
5:53 AM,61.0,46.0,58,30.16,10.0,North,-9999.0,-,N/A,,Partly Cloudy,0,2012-09-24 10:53:00
6:53 AM,61.0,46.0,58,30.17,10.0,North,-9999.0,-,N/A,,Clear,0,2012-09-24 11:53:00
7:53 AM,61.0,45.0,56,30.18,10.0,North,-9999.0,-,N/A,,Clear,0,2012-09-24 12:53:00
8:53 AM,64.0,45.0,50,30.19,10.0,North,-9999.0,-,N/A,,Clear,0,2012-09-24 13:53:00
9:53 AM,66.9,46.0,47,30.18,10.0,North,-9999.0,-,N/A,,Clear,0,2012-09-24 14:53:00
10:53 AM,70.0,48.0,46,30.17,10.0,North,-9999.0,-,N/A,,Scattered Clouds,0,2012-09-24 15:53:00
11:02 AM,69.8,48.2,46,30.18,10.0,North,-9999.0,-,N/A,,Mostly Cloudy,0,2012-09-24 16:02:00
11:23 AM,73.4,50.0,44,30.17,10.0,North,-9999.0,-,N/A,,Scattered Clouds,0,2012-09-24 16:23:00
11:53 AM,75.9,52.0,43,30.15,10.0,North,-9999.0,-,N/A,,Clear,0,2012-09-24 16:53:00
12:53 PM,80.1,57.0,45,30.12,10.0,North,-9999.0,-,N/A,,Clear,0,2012-09-24 17:53:00
1:53 PM,82.9,60.1,46,30.08,10.0,North,-9999.0,-,N/A,,Clear,0,2012-09-24 18:53:00
2:53 PM,86.0,61.0,43,30.03,10.0,North,-9999.0,-,N/A,,Clear,0,2012-09-24 19:53:00
3:53 PM,88.0,62.1,42,30.00,10.0,North,-9999.0,-,N/A,,Clear,0,2012-09-24 20:53:00
4:53 PM,89.1,62.1,40,29.97,10.0,North,-9999.0,-,N/A,,Clear,0,2012-09-24 21:53:00
5:53 PM,87.1,63.0,44,29.96,10.0,North,-9999.0,-,N/A,,Clear,0,2012-09-24 22:53:00
6:53 PM,84.0,64.0,51,29.96,10.0,North,-9999.0,-,N/A,,Clear,0,2012-09-24 23:53:00
7:53 PM,80.1,64.0,58,29.96,10.0,North,-9999.0,-,N/A,,Clear,0,2012-09-25 00:53:00
8:53 PM,78.1,64.0,62,29.96,10.0,North,-9999.0,-,N/A,,Clear,0,2012-09-25 01:53:00
9:53 PM,78.1,64.0,62,29.98,9.0,North,-9999.0,-,N/A,,Clear,0,2012-09-25 02:53:00
10:53 PM,70.0,64.9,84,29.98,8.0,North,-9999.0,-,N/A,,Clear,0,2012-09-25 03:53:00
11:53 PM,69.1,64.9,87,29.98,10.0,North,-9999.0,-,N/A,,Clear,0,2012-09-25 04:53:00